• în România
  • Lista ţărilor
  • Pe 7 zile
  • Temperatura apei
  • Hartă satelitară
  • Meteo pe hartă
  • Widget-uri
  • user-avatar
    Intrare

    Meteo pe oră la Blagoevgrad

    Astăzi, 20 Octombrie, Vineri

    Timp Temperatura Precipitaţii Vânt Presiune Umiditate
    00:00 +15°C° 0 mm 1 m/s 721 mmHg 54%
    01:00 +15°C° 0 mm 1 m/s 721 mmHg 54%
    02:00 +15°C° 0 mm 1 m/s 722 mmHg 56%
    03:00 +14°C° 0 mm 1 m/s 722 mmHg 56%
    04:00 +14°C° 0 mm 1 m/s 722 mmHg 56%
    05:00 +14°C° 0 mm 1 m/s 722 mmHg 56%
    06:00 +15°C° 0 mm 1 m/s 722 mmHg 55%
    07:00 +16°C° 0 mm 1 m/s 722 mmHg 54%
    08:00 +16°C° 0 mm 1 m/s 722 mmHg 53%
    09:00 +20°C° 0 mm 1 m/s 722 mmHg 47%
    10:00 +22°C° 0 mm 1 m/s 723 mmHg 40%
    11:00 +25°C° 0 mm 1 m/s 723 mmHg 34%
    12:00 +25°C° 0 mm 1 m/s 723 mmHg 33%
    13:00 +26°C° 0 mm 1 m/s 723 mmHg 32%
    14:00 +26°C° 0 mm 1 m/s 722 mmHg 31%
    15:00 +25°C° 0 mm 1 m/s 722 mmHg 35%
    16:00 +24°C° 0 mm 1 m/s 722 mmHg 39%
    17:00 +23°C° 0 mm 1 m/s 722 mmHg 43%
    18:00 +19°C° 0 mm 0 m/s 722 mmHg 46%
    19:00 +17°C° 0 mm 0 m/s 722 mmHg 50%
    20:00 +16°C° 0 mm 0 m/s 722 mmHg 53%
    21:00 +15°C° 0 mm 0 m/s 722 mmHg 54%
    22:00 +16°C° 0 mm 1 m/s 722 mmHg 55%
    23:00 +16°C° 0 mm 1 m/s 723 mmHg 56%

    Mâine, 21 Octombrie, Sâmbătă

    Timp Temperatura Precipitaţii Vânt Presiune Umiditate
    00:00 +15°C° 0 mm 1 m/s 723 mmHg 57%
    01:00 +15°C° 0 mm 1 m/s 723 mmHg 58%
    02:00 +15°C° 0 mm 1 m/s 723 mmHg 59%
    03:00 +14°C° 0 mm 1 m/s 722 mmHg 60%
    04:00 +14°C° 0 mm 1 m/s 722 mmHg 61%
    05:00 +14°C° 0 mm 1 m/s 722 mmHg 61%
    06:00 +14°C° 0 mm 1 m/s 722 mmHg 60%
    07:00 +15°C° 0 mm 1 m/s 723 mmHg 59%
    08:00 +16°C° 0 mm 1 m/s 723 mmHg 58%
    09:00 +19°C° 0 mm 1 m/s 723 mmHg 50%
    10:00 +22°C° 0 mm 1 m/s 723 mmHg 42%
    11:00 +24°C° 0 mm 1 m/s 723 mmHg 34%
    12:00 +24°C° 0 mm 1 m/s 723 mmHg 33%
    13:00 +25°C° 0 mm 1 m/s 722 mmHg 32%
    14:00 +25°C° 0 mm 2 m/s 722 mmHg 30%
    15:00 +24°C° 0 mm 1 m/s 722 mmHg 34%
    16:00 +23°C° 0 mm 1 m/s 721 mmHg 38%
    17:00 +22°C° 0 mm 1 m/s 721 mmHg 42%
    18:00 +20°C° 0 mm 1 m/s 721 mmHg 45%
    19:00 +19°C° 0 mm 1 m/s 721 mmHg 48%
    20:00 +16°C° 0 mm 1 m/s 721 mmHg 51%
    21:00 +15°C° 0 mm 1 m/s 721 mmHg 53%
    22:00 +15°C° 0 mm 1 m/s 721 mmHg 54%
    23:00 +15°C° 0 mm 1 m/s 721 mmHg 55%

    Poimâine, 22 Octombrie, Duminică

    Timp Temperatura Precipitaţii Vânt Presiune Umiditate
    00:00 +14°C° 0 mm 1 m/s 721 mmHg 57%
    01:00 +14°C° 0 mm 1 m/s 721 mmHg 58%
    02:00 +14°C° 0 mm 1 m/s 721 mmHg 59%
    03:00 +13°C° 0 mm 1 m/s 721 mmHg 60%
    04:00 +13°C° 0 mm 1 m/s 720 mmHg 60%
    05:00 +13°C° 0 mm 1 m/s 720 mmHg 61%
    06:00 +14°C° 0 mm 1 m/s 720 mmHg 59%
    07:00 +14°C° 0 mm 1 m/s 720 mmHg 58%
    08:00 +15°C° 0 mm 1 m/s 720 mmHg 57%
    09:00 +19°C° 0 mm 1 m/s 721 mmHg 49%
    10:00 +21°C° 0 mm 1 m/s 721 mmHg 42%
    11:00 +23°C° 0 mm 1 m/s 721 mmHg 35%
    12:00 +24°C° 0 mm 1 m/s 720 mmHg 33%
    13:00 +25°C° 0 mm 1 m/s 720 mmHg 32%
    14:00 +25°C° 0 mm 1 m/s 719 mmHg 30%
    15:00 +24°C° 0 mm 1 m/s 719 mmHg 34%
    16:00 +23°C° 0 mm 1 m/s 719 mmHg 38%
    17:00 +21°C° 0 mm 1 m/s 718 mmHg 42%
    18:00 +20°C° 0 mm 1 m/s 718 mmHg 45%
    19:00 +18°C° 0 mm 1 m/s 718 mmHg 48%
    20:00 +16°C° 0 mm 1 m/s 718 mmHg 51%
    21:00 +15°C° 0 mm 1 m/s 718 mmHg 52%
    22:00 +15°C° 0 mm 1 m/s 718 mmHg 54%
    23:00 +15°C° 0 mm 1 m/s 718 mmHg 55%

    23 Octombrie, Luni

    Timp Temperatura Precipitaţii Vânt Presiune Umiditate
    00:00 +15°C° 0 mm 1 m/s 717 mmHg 56%
    01:00 +15°C° 0 mm 1 m/s 717 mmHg 56%
    02:00 +14°C° 0 mm 1 m/s 717 mmHg 57%
    03:00 +14°C° 0 mm 1 m/s 716 mmHg 59%
    04:00 +14°C° 0 mm 1 m/s 716 mmHg 60%
    05:00 +14°C° 0 mm 1 m/s 716 mmHg 62%
    06:00 +14°C° 0,1 mm 1 m/s 715 mmHg 63%
    07:00 +15°C° 0,1 mm 1 m/s 715 mmHg 65%
    08:00 +15°C° 0,1 mm 1 m/s 715 mmHg 66%
    09:00 +17°C° 0 mm 2 m/s 715 mmHg 60%
    10:00 +19°C° 0 mm 3 m/s 715 mmHg 55%
    11:00 +21°C° 0 mm 3 m/s 714 mmHg 49%
    12:00 +21°C° 0 mm 3 m/s 714 mmHg 46%
    13:00 +22°C° 0 mm 3 m/s 714 mmHg 44%
    14:00 +22°C° 0 mm 4 m/s 713 mmHg 41%
    15:00 +21°C° 0,2 mm 3 m/s 713 mmHg 46%
    16:00 +20°C° 0,2 mm 2 m/s 713 mmHg 51%
    17:00 +19°C° 0,2 mm 2 m/s 713 mmHg 56%
    18:00 +17°C° 0,9 mm 2 m/s 713 mmHg 65%
    19:00 +16°C° 0,9 mm 2 m/s 713 mmHg 74%
    20:00 +14°C° 0,9 mm 1 m/s 713 mmHg 84%
    21:00 +13°C° 0,9 mm 2 m/s 713 mmHg 85%
    22:00 +13°C° 0,9 mm 2 m/s 713 mmHg 86%
    23:00 +12°C° 0,9 mm 2 m/s 713 mmHg 87%

    24 Octombrie, Marţi

    Timp Temperatura Precipitaţii Vânt Presiune Umiditate
    00:00 +11°C° 1,5 mm 3 m/s 713 mmHg 87%
    01:00 +10°C° 1,5 mm 3 m/s 713 mmHg 87%
    02:00 +10°C° 1,5 mm 3 m/s 713 mmHg 87%
    03:00 +10°C° 0,6 mm 3 m/s 713 mmHg 86%
    04:00 +9°C° 0,6 mm 3 m/s 712 mmHg 86%
    05:00 +9°C° 0,6 mm 3 m/s 712 mmHg 85%
    06:00 +9°C° 0,4 mm 3 m/s 712 mmHg 84%
    07:00 +8°C° 0,4 mm 4 m/s 712 mmHg 83%
    08:00 +8°C° 0,4 mm 4 m/s 712 mmHg 82%
    09:00 +10°C° 0,7 mm 4 m/s 712 mmHg 80%
    10:00 +10°C° 0,7 mm 4 m/s 712 mmHg 78%
    11:00 +11°C° 0,7 mm 4 m/s 712 mmHg 76%
    12:00 +11°C° 0,9 mm 4 m/s 712 mmHg 77%
    13:00 +11°C° 0,9 mm 4 m/s 712 mmHg 77%
    14:00 +11°C° 0,9 mm 4 m/s 712 mmHg 77%
    15:00 +10°C° 0,4 mm 4 m/s 712 mmHg 78%
    16:00 +10°C° 0,4 mm 4 m/s 712 mmHg 79%
    17:00 +10°C° 0,4 mm 4 m/s 712 mmHg 79%
    18:00 +10°C° 1,1 mm 4 m/s 712 mmHg 81%
    19:00 +8°C° 1,1 mm 4 m/s 713 mmHg 83%
    20:00 +8°C° 1,1 mm 4 m/s 713 mmHg 85%
    21:00 +8°C° 0,3 mm 4 m/s 713 mmHg 85%
    22:00 +8°C° 0,3 mm 4 m/s 714 mmHg 86%
    23:00 +9°C° 0,3 mm 3 m/s 714 mmHg 86%

    25 Octombrie, Miercuri

    Timp Temperatura Precipitaţii Vânt Presiune Umiditate
    00:00 +10°C° 0,7 mm 3 m/s 714 mmHg 87%
    01:00 +10°C° 0,7 mm 3 m/s 715 mmHg 88%
    02:00 +10°C° 0,7 mm 3 m/s 715 mmHg 89%
    03:00 +10°C° 1 mm 3 m/s 715 mmHg 89%
    04:00 +10°C° 1 mm 3 m/s 715 mmHg 90%
    05:00 +10°C° 1 mm 4 m/s 716 mmHg 90%
    06:00 +11°C° 0,9 mm 4 m/s 716 mmHg 89%
    07:00 +11°C° 0,9 mm 4 m/s 717 mmHg 89%
    08:00 +11°C° 0,9 mm 4 m/s 717 mmHg 88%
    09:00 +11°C° 0,8 mm 4 m/s 718 mmHg 86%
    10:00 +11°C° 0,8 mm 4 m/s 719 mmHg 84%
    11:00 +12°C° 0,8 mm 4 m/s 719 mmHg 82%
    12:00 +12°C° 0,1 mm 5 m/s 720 mmHg 79%
    13:00 +12°C° 0,1 mm 5 m/s 720 mmHg 77%
    14:00 +13°C° 0,1 mm 5 m/s 720 mmHg 74%
    15:00 +12°C° 0,3 mm 5 m/s 721 mmHg 75%
    16:00 +11°C° 0,3 mm 4 m/s 721 mmHg 77%
    17:00 +10°C° 0,3 mm 4 m/s 722 mmHg 78%
    18:00 +10°C° 0,3 mm 4 m/s 722 mmHg 79%
    19:00 +8°C° 0,3 mm 4 m/s 723 mmHg 80%
    20:00 +8°C° 0,3 mm 4 m/s 724 mmHg 80%
    21:00 +8°C° 0,2 mm 4 m/s 724 mmHg 80%
    22:00 +9°C° 0,2 mm 3 m/s 725 mmHg 79%
    23:00 +9°C° 0,2 mm 3 m/s 725 mmHg 79%
    Arată mai mult